{"data":{"norad_id":62865,"intl_designator":"2025-022M","name":"STARLINK-32841","alt_names":[],"object_type":"PAYLOAD","status":"ACTIVE","operator":null,"country":"US","launch_date":"2025-02-01","launch_site_code":"AFWTR","launch_vehicle":null,"mission":null,"orbit_class":"UNKNOWN","rcs_meters":null,"size_class":null,"mass_kg":null,"dimensions":null,"purposes":["comms"],"wikipedia_slug":null,"has_3d_model":false,"image_url":null,"decayed_at":null,"tle_current":{"epoch":"2026-05-25T03:09:52.100928Z","epoch_age_seconds":56816,"freshness":"FRESH","line1":"1 62865U 25022M   26145.13185302 -.00006588  00000+0 -21049-3 0  9996","line2":"2 62865  53.1567 134.5588 0001186  92.2617 267.8520 15.30201574 73595","mean_motion":15.30201574,"eccentricity":0.0001186,"inclination_deg":53.1567,"raan_deg":134.5588,"arg_perigee_deg":92.2617,"mean_anomaly_deg":267.852,"bstar":-0.00021049,"rev_number":7359,"period_min":94.105248907553,"perigee_km":474.39756274502,"apogee_km":476.02317674112,"semimajor_km":6853.3473697431,"source":"CELESTRAK","updated_at":"2026-05-25T13:38:19.785261Z"}}}